Tracking 31027 objects as of 19-Jul-2025
HD Live streaming from Space Station
objects crossing your sky now

STARLINK-31226

Track STARLINK-31226 now!
10-day predictions
STARLINK-31226 is classified as:


NORAD ID: 58858
Int'l Code: 2024-019F
Perigee: 494.4 km
Apogee: 495.9 km
Inclination: 43.0 °
Period: 94.4 minutes
Semi major axis: 6866 km
RCS: Unknown
Launch date: January 29, 2024
Source: United States (US)
Launch site: AIR FORCE EASTERN TEST RANGE (AFETR)
Your satellite tracking list
DEWASAT-2
Track 1 satellite(s)




NASA's NSSDC Master Catalog

Two Line Element Set (TLE):
1 58858U 24019F   25199.15918944  .00001125  00000-0  52817-4 0  9993
2 58858  43.0014 133.4707 0001090 278.0317  82.0410 15.25913169 83212
Source of the keplerian elements: AFSPC